Location: Newark
(43.0000°N, 1.6781°W)
Time: 20:52:19
(UTC+00:00)

Transit 2A Rocket - All Passes

Search period start: 17 April 2021 00:00
Search period end: 27 April 2021 00:00
Orbit: 594 x 908 km, 66.7° (Epoch: 17 April)

Date Brightness Start Highest point End Pass type
(mag) Time Alt. Az. Time Alt. Az. Time Alt. Az.
17 Apr - 00:00:17 10° N 00:04:09 28° NE 00:08:13 10° ESE visible
17 Apr - 01:42:34 10° NW 01:46:42 36° WSW 01:51:08 10° S visible
17 Apr - 14:37:57 10° SE 14:40:27 15° ESE 14:42:52 10° ENE daylight
17 Apr - 16:18:01 10° SW 16:22:31 59° WNW 16:26:50 10° NNE daylight
17 Apr - 23:18:13 10° N 23:21:17 18° NE 23:24:27 10° E visible
18 Apr - 00:59:43 10° NW 01:04:11 66° WSW 01:09:00 10° SSE visible
18 Apr - 15:35:21 10° SSW 15:39:54 75° ESE 15:44:16 10° NE daylight
18 Apr - 17:20:17 10° W 17:22:55 15° NW 17:25:31 10° N daylight
18 Apr - 22:36:48 10° NNE 22:38:17 11° NE 22:39:48 10° ENE visible
19 Apr - 00:17:07 10° NNW 00:21:35 69° ENE 00:26:25 10° SE visible
19 Apr - 02:01:21 10° WNW 02:03:39 14° WSW 02:06:01 10° SW night (unlit)
19 Apr - 14:53:08 10° S 14:57:23 39° ESE 15:01:28 10° NE daylight
19 Apr - 16:36:21 10° WSW 16:40:00 24° NW 16:43:34 10° N daylight
19 Apr - 23:34:41 10° NNW 23:38:55 39° NE 23:43:24 10° ESE visible
20 Apr - 01:17:32 10° WNW 01:21:16 25° WSW 01:25:12 10° SSW visible
20 Apr - 14:11:30 10° SSE 14:14:57 21° ESE 14:18:17 10° ENE daylight
20 Apr - 15:52:58 10° SW 15:57:14 40° NW 16:01:20 10° NNE daylight
20 Apr - 22:52:27 10° N 22:56:07 24° NE 22:59:58 10° ESE visible
21 Apr - 00:34:28 10° NW 00:38:48 44° WSW 00:43:27 10° S visible
21 Apr - 13:31:11 10° SE 13:32:36 11° ESE 13:34:01 10° E daylight
21 Apr - 15:10:02 10° SW 15:14:34 74° WNW 15:18:54 10° NNE daylight
21 Apr - 16:56:24 10° WNW 16:57:50 11° NW 16:59:16 10° NNW daylight
21 Apr - 22:10:33 10° N 22:13:12 15° NE 22:15:58 10° E visible
21 Apr - 23:51:43 10° NNW 23:56:15 82° WSW 00:01:09 10° SSE visible
22 Apr - 14:27:30 10° SSW 14:31:59 59° ESE 14:36:16 10° NE daylight
22 Apr - 16:11:48 10° W 16:14:50 18° NW 16:17:50 10° N daylight
22 Apr - 23:09:11 10° NNW 23:13:38 56° ENE 23:18:24 10° SE visible
23 Apr - 00:52:47 10° WNW 00:55:48 17° WSW 00:58:57 10° SSW visible
23 Apr - 13:45:28 10° S 13:49:29 31° ESE 13:53:21 10° NE daylight
23 Apr - 15:28:05 10° WSW 15:31:59 29° NW 15:35:47 10° N daylight
23 Apr - 22:26:50 10° NNW 22:30:54 33° NE 22:35:15 10° ESE visible
24 Apr - 00:09:21 10° NW 00:13:23 31° WSW 00:17:41 10° S visible
24 Apr - 13:04:09 10° SSE 13:07:05 17° ESE 13:09:57 10° ENE daylight
24 Apr - 14:44:52 10° SW 14:49:14 50° NW 14:53:27 10° NNE daylight
24 Apr - 21:44:41 10° N 21:48:05 21° NE 21:51:38 10° E visible
24 Apr - 23:26:26 10° NW 23:30:53 56° WSW 23:35:42 10° SSE visible
25 Apr - 14:02:05 10° SSW 14:06:35 89° SE 14:10:57 10° NNE daylight
25 Apr - 15:47:34 10° WNW 15:49:44 13° NW 15:51:51 10° N daylight
25 Apr - 21:02:56 10° N 21:05:08 13° NE 21:07:22 10° ENE visible
25 Apr - 22:43:45 10° NNW 22:48:18 82° ENE 22:53:14 10° SSE visible
26 Apr - 00:28:41 10° W 00:30:17 12° WSW 00:31:56 10° SW visible
26 Apr - 13:19:43 10° S 13:24:03 47° ESE 13:28:13 10° NE daylight
26 Apr - 15:03:24 10° W 15:06:47 21° NW 15:10:06 10° N daylight
26 Apr - 22:01:17 10° NNW 22:05:39 46° NE 22:10:21 10° SE visible
26 Apr - 23:44:25 10° WNW 23:47:56 21° WSW 23:51:38 10° SSW visible
